Regional Weather Roundup
Issued by NWS Charleston, SC

Current Version | Previous Version | Graphics & Text | Print | Product List | Glossary On
Versions: 1 2 3 4 5 6 7 8 9 10 11 12 13 14 15 16 17 18 19 20 21 22 23 24 25 26 27 28 29 30 31 32 33 34 35 36 37 38 39 40 41 42 43 44 45 46 47 48 49 50
544
ASUS42 KCHS 272213
RWRCHS

REGIONAL WEATHER ROUNDUP
NATIONAL WEATHER SERVICE CHARLESTON SC
600 PM EDT TUE SEP 27 2016

NOTE: "FAIR" INDICATES FEW OR NO CLOUDS BELOW 12,000 FEET WITH NO
SIGNIFICANT WEATHER AND/OR OBSTRUCTIONS TO VISIBILITY.

NOT ALL STATIONS ARE QUALITY CONTROLLED. USE DATA WITH CAUTION...
ESPECIALLY DEWPOINT OBSERVATIONS.

SCZ027-030-031-034>040-042>050-272300-
...SOUTHEAST SOUTH CAROLINA...

CITY           SKY/WX    TMP DP  RH WIND       PRES   REMARKS
N CHARLESTON   MOSUNNY   80  66  62 SE9       29.88R
WATERFRONT PRK   N/A     81  71  71 SE7       29.86S
MOUNT PLEASANT FAIR      81  70  69 SE3       29.88R
JOHNS ISLAND   FAIR      81  70  69 SE6       29.88R
PINOPOLIS        N/A     86  70  58 MISG      29.80F HX  90
MONCKS CORNER  FAIR      82  68  61 CALM      29.87R
SUMMERVILLE    FAIR      82  72  69 CALM      29.88R
BEAUFORT MCAS  CLOUDY    79  74  84 SE6       29.88R HAZE
BEAUFORT ARPT  FAIR      81  72  74 SE5       29.87S
HILTON HEAD IS MOSUNNY   86  73  66 S6        29.89S HX  93
WALTERBORO     PTCLDY    82  70  65 N3        29.89R
ALLENDALE      FAIR      82  72  69 CALM      29.87R

...SOUTHERN MIDLANDS AND PEE DEE...

CITY           SKY/WX    TMP DP  RH WIND       PRES   REMARKS
GEORGETOWN     FAIR      81  70  69 SE7       29.89R
KINGSTREE      FAIR      84  66  54 CALM      29.86S
ORANGEBURG     MOSUNNY   83  67  58 S5        29.87R
BARNWELL       NOT AVBL
AIKEN          NOT AVBL
MANNING        FAIR      81  70  69 CALM      29.87R
COLUMBIA       PTSUNNY   85  68  56 SE7       29.85S
SUMTER         MOSUNNY   85  65  50 SW7       29.85R
FLORENCE       SUNNY     86  67  52 SW5       29.87R
MYRTLE BEACH   NOT AVBL
N MYRTLE BEACH SUNNY     81  70  69 S7        29.87S

$$

GAZ063-065-086>088-099>101-113>116-118-119-134>141-150-272300-
...SOUTHEAST GEORGIA...

CITY           SKY/WX    TMP DP  RH WIND       PRES   REMARKS
SAVANNAH ARPT  PTSUNNY   83  71  67 SE8       29.87S
HUNTER AAF     MOSUNNY   83  77  82 S8        29.85F HX  91
FORT STEWART   PTSUNNY   85  69  58 CALM      29.85S
STATESBORO     MOSUNNY   83  73  69 CALM      29.87F
SYLVANIA       NOT AVBL
CLAXTON        FAIR      83  73  71 CALM      29.88S

...CSRA...CENTRAL AND FAR SOUTHEAST GEORGIA...

CITY           SKY/WX    TMP DP  RH WIND       PRES   REMARKS
THOMSON        MOSUNNY   89  69  51 SW3       29.91R HX  93
AUGUSTA-BUSH   MOSUNNY   86  68  54 S7        29.85S
AUGUSTA-DANIEL MOSUNNY   86  65  49 S8        29.87S
SWAINSBORO     FAIR      86  68  54 S5        29.88F
VIDALIA        CLOUDY    88  72  58 SE3       29.88S HX  94
EASTMAN        FAIR      88  54  31 S8        29.89F
HAZLEHURST     FAIR      88  67  51 CALM      29.87S HX  91
ALMA           CLOUDY    86  67  52 CALM      29.88S
WAYCROSS       MOSUNNY   89  71  54 CALM      29.88S HX  95
JESUP          FAIR      86  72  62 CALM      29.88S HX  92
BAXLEY         FAIR      88  72  58 W3        29.88S HX  94
BRUNSWICK      SUNNY     84  73  70 E6        29.89S HX  91
SAINT SIMONS   SUNNY     82  71  69 E7        29.88S

$$

SCZ027-028-034-036>038-045-046-048>050-GAZ119-141-272300-
...LAKE AND SUPPLEMENTAL COASTAL OBSERVATIONS...

STATION/POSITION TIME  TEMP    WIND        PRES    WAVE   SWELL
                       AIR SEA DIR/SP/G            HT/PER HT/PER/DIR
                 (UTC) (F)     (DEG/KT/KT) (MB)    (FT/S) (FT/S/D)
WINYAH BAY       NOT AVBL
LAKE MURRAY      2120   91      CALM  /  1 1010.5S
ACE BASIN NERRS  2045   84     140/  2     1012.0
FORT PULASKI     2148   82 81  120/  6/  8   N/A
SAPELO ISLAND    2100   85      90/  6     1012.0

$$

ANZ835-935-AMZ111-154-330-350-352-354-370-450-454-472-272300-
...C-MAN AND BUOY OBSERVATIONS...

STATION/POSITION TIME  TEMP    WIND        PRES    WAVE   SWELL
                       AIR SEA DIR/SP/G            HT/PER HT/PER/DIR
                 (UTC) (F)     (DEG/KT/KT) (MB)    (FT/S) (FT/S/D)
BUOY 41004       2150   81 82   50/  6/  6 1011.2R   2/ 9   2/ 90/ 9
BUOY 41008       2150   81 83   70/  4/  6 1011.7F   2/ 9   2/ 90/ 9
FOLLY BEACH CMAN 2200   80     130/  6/  7 1012.2R
CAPERS NEARSHORE 2108   80 83  130/  6/ 10 1011.4F
FRIPP NEARSHORE  2108   81 82  120/  8/ 10 1011.7F


STATION/POSITION TIME  TEMP    WIND        PRES    WAVE   SWELL
                       AIR SEA DIR/SP/G            HT/PER HT/PER/DIR
                 (UTC) (F)     (DEG/KT/KT) (MB)    (FT/S) (FT/S/D)
5E ST. MARYS GA  2131      83                N/A     2/ 9   2/110/13
FRYING PAN BUOY  2150   80 82   40/  4/  6 1011.0F   3/ 6   3/100/ 6
BUOY 41025       2150   77 84  100/ 10/ 14 1011.8F   4/ 6   3/110/ 6
CAPE LOOKOUT NC  2200   78      70/ 12/ 12 1011.3F
BUOY 41002       2150   81 83  220/ 10/ 14 1011.2F   6/ 6   5/ 90/ 6
BUOY 41010       NOT AVBL
ST AUGUSTINE FL  2200   81 85   20/  8/  9 1013.1R


$$




USA.gov is the U.S. government's official web portal to all federal, state and local government web resources and services.